Weather Roundup
Issued by NWS Springfield, MO

Home | Current Version | Previous Version | Text Only | Print | Product List | Glossary On
Versions: 1 2 3 4 5 6 7 8 9 10 11 12 13 14 15 16 17 18 19 20 21 22 23 24 25 26 27 28 29 30 31 32 33 34 35 36 37 38 39 40 41 42 43 44 45 46 47 48 49 50
000
NZUS99 KSGF 031210
HRRSGF

HOURLY WEATHER
NATIONAL WEATHER SERVICE SPRINGFIELD MO
700 AM CDT THU SEP 03 2015

......SGF CWA......

CITY           SKY/WX    TMP DP  RH WIND       PRES   REMARKS
SPRINGFIELD    CLEAR     70  65  84 S6        30.02R
6HR MIN TEMP:  69; 6HR MAX TEMP:  73;

JOPLIN         CLEAR     69  66  90 S7        30.00R
6HR MIN TEMP:  69; 6HR MAX TEMP:  74;

WEST PLAINS    CLEAR     66  63  90 CALM      30.06S FOG
6HR MIN TEMP:  65; 6HR MAX TEMP:  73;

ROLLA          PTCLDY    68  66  93 S7        30.01R
6HR MIN TEMP:  67; 6HR MAX TEMP:  73;

OSAGE BEACH    CLEAR     68  64  88 SE3       30.01R
BRANSON        CLEAR     66  64  94 CALM      30.04S

......SURROUNDING SGF CWA......

CITY           SKY/WX    TMP DP  RH WIND       PRES   REMARKS
CHANUTE        CLEAR     68  66  93 S6        29.97R
PARSONS        CLEAR     70  68  93 CALM      29.98R
COFFEYVILLE    CLEAR     68  67  96 S5        29.97R
EMPORIA        PTCLDY    70  66  87 S13       29.94R
GROVE OK       CLEAR     72  72 100 S5        30.00S
ROGERS AR      CLEAR     69  66  90 SE5       30.04R
SILOAM SPRINGS CLEAR     68  61  77 SE5       30.01S
HARRISON AR    CLEAR     66  65  96 CALM      30.05R
NEAR YELLVILLE PTCLDY    66  61  82 CALM      30.02R

......KANSAS AND MISSOURI......

CITY           SKY/WX    TMP DP  RH WIND       PRES   REMARKS
KANSAS CTY INT PTCLDY    74  67  78 S13       29.94S
DOWNTOWN KC    CLEAR     75  68  78 S8        29.94R
COLUMBIA       CLOUDY    71  68  90 SE6       30.00R
SEDALIA        PTCLDY    72  66  81 S8        29.99R
ST JOSEPH      PTCLDY    73  68  84 S8        29.92R
ST LOUIS       MOCLDY    78  68  71 CALM      30.01R
SPIRIT OF STL  MOCLDY    70  70 100 CALM      30.00R
KIRKSVILLE     PTCLDY    70  66  87 S7        29.98R
WICHITA        MOCLDY    71  63  75 S10       29.93S
TOPEKA         MOCLDY    74  67  78 S5        29.93R
OLATHE         PTCLDY    70  67  90 S6        29.95S

......TENNESSEE......

CITY           SKY/WX    TMP DP  RH WIND       PRES   REMARKS
MEMPHIS        PTCLDY    73  71  93 CALM      30.03R
NASHVILLE      PTCLDY    74  69  85 CALM      30.04R

......ARKANSAS.......

CITY           SKY/WX    TMP DP  RH WIND       PRES   REMARKS
FAYETTEVILLE   CLEAR     64  64 100 CALM      30.03S FOG
FT SMITH       CLEAR     71  66  84 E3        30.00R
LITTLE ROCK    PTCLDY    72  70  93 CALM      30.02R

......OKLAHOMA.......

CITY           SKY/WX    TMP DP  RH WIND       PRES   REMARKS
TULSA          PTCLDY    70  67  90 SE5       29.96R
PONCA CITY     PTCLDY    74  64  71 S7        29.95R
MCALESTER      PTCLDY    71  65  81 CALM      29.99S
OKLAHOMA CITY  PTCLDY    66  64  93 S6        29.98R

......IOWA............

CITY           SKY/WX    TMP DP  RH WIND       PRES   REMARKS
DES MOINES     MOCLDY    73  68  84 S7        29.90S
QUAD CITIES    CLEAR     72  67  84 CALM      29.96R

......ILLINOIS........

CITY           SKY/WX    TMP DP  RH WIND       PRES   REMARKS
QUINCY         PTCLDY    71  67  87 S6        29.99R
CHICAGO        PTCLDY    73  68  84 SW6       29.95S



USA.gov is the U.S. government's official web portal to all federal, state and local government web resources and services.